When you browse on this site, cookies collect data to enhance your experience and personalize the content and advertising you see.
Visit our Privacy Policy to learn more. By continuing to use the site, you agree to this use of cookies and data.
  • In Romania
  • List of Countries
  • For 7 days
  • Water Temperature
  • Satellite Maps
  • Weather Map
  • Weather Widgets
  • user-avatar
    Login

    Hourly Weather Morsko

    Today, 22 February, Friday

    Time Temperature Precipitation Wind Pressure Humidity
    00:00 +5°C° 0.4 mm 5 mps 744 mmHg 85%
    01:00 +4°C° 0 mm 4 mps 744 mmHg 86%
    02:00 +4°C° 0.7 mm 4 mps 744 mmHg 87%
    03:00 +3°C° 0.7 mm 5 mps 744 mmHg 88%
    04:00 +3°C° 0.7 mm 5 mps 744 mmHg 89%
    05:00 +2°C° 0.7 mm 6 mps 745 mmHg 87%
    06:00 -1°C° 0.7 mm 7 mps 746 mmHg 85%
    07:00 -3°C° 0 mm 7 mps 747 mmHg 81%
    08:00 -3°C° 0.1 mm 7 mps 748 mmHg 75%
    09:00 -4°C° 0.1 mm 7 mps 749 mmHg 69%
    10:00 -4°C° 0.1 mm 7 mps 751 mmHg 63%
    11:00 -4°C° 0 mm 7 mps 752 mmHg 57%
    12:00 -4°C° 0 mm 7 mps 752 mmHg 52%
    13:00 -4°C° 0 mm 6 mps 754 mmHg 45%
    14:00 -4°C° 0 mm 6 mps 754 mmHg 45%
    15:00 -6°C° 0 mm 7 mps 755 mmHg 45%
    16:00 -6°C° 0 mm 7 mps 755 mmHg 44%
    17:00 -6°C° 0 mm 6 mps 756 mmHg 45%
    18:00 -6°C° 0 mm 6 mps 756 mmHg 46%
    19:00 -6°C° 0 mm 5 mps 757 mmHg 47%
    20:00 -6°C° 0 mm 5 mps 758 mmHg 45%
    21:00 -6°C° 0 mm 5 mps 758 mmHg 43%
    22:00 -6°C° 0 mm 5 mps 759 mmHg 40%
    23:00 -6°C° 0 mm 5 mps 759 mmHg 41%

    Tomorrow, 23 February, Saturday

    Time Temperature Precipitation Wind Pressure Humidity
    00:00 -7°C° 0 mm 5 mps 760 mmHg 41%
    01:00 -7°C° 0 mm 4 mps 760 mmHg 41%
    02:00 -7°C° 0 mm 4 mps 760 mmHg 43%
    03:00 -7°C° 0 mm 4 mps 760 mmHg 45%
    04:00 -7°C° 0 mm 4 mps 760 mmHg 47%
    05:00 -6°C° 0 mm 3 mps 761 mmHg 48%
    06:00 -6°C° 0 mm 3 mps 761 mmHg 50%
    07:00 -7°C° 0 mm 3 mps 761 mmHg 52%
    08:00 -6°C° 0 mm 3 mps 761 mmHg 50%
    09:00 -5°C° 0 mm 3 mps 762 mmHg 48%
    10:00 -5°C° 0 mm 3 mps 762 mmHg 46%
    11:00 -4°C° 0 mm 3 mps 762 mmHg 43%
    12:00 -4°C° 0 mm 3 mps 762 mmHg 41%
    13:00 -2°C° 0 mm 3 mps 761 mmHg 38%
    14:00 -2°C° 0 mm 2 mps 761 mmHg 38%
    15:00 -2°C° 0 mm 2 mps 761 mmHg 38%
    16:00 -2°C° 0 mm 2 mps 761 mmHg 38%
    17:00 -3°C° 0 mm 2 mps 761 mmHg 41%
    18:00 -1°C° 0 mm 1 mps 761 mmHg 44%
    19:00 -2°C° 0 mm 1 mps 761 mmHg 48%
    20:00 -3°C° 0 mm 0 mps 761 mmHg 48%
    21:00 -3°C° 0 mm 0 mps 761 mmHg 48%
    22:00 -3°C° 0 mm 0 mps 761 mmHg 49%
    23:00 -2°C° 0 mm 1 mps 761 mmHg 49%

    Day after tomorrow, 24 February, Sunday

    Time Temperature Precipitation Wind Pressure Humidity
    00:00 -2°C° 0 mm 1 mps 761 mmHg 49%
    01:00 -2°C° 0 mm 1 mps 760 mmHg 50%
    02:00 -2°C° 0 mm 1 mps 760 mmHg 49%
    03:00 -2°C° 0 mm 1 mps 760 mmHg 49%
    04:00 -2°C° 0 mm 1 mps 759 mmHg 48%
    05:00 -2°C° 0 mm 1 mps 759 mmHg 46%
    06:00 -1°C° 0 mm 1 mps 759 mmHg 44%
    07:00 -1°C° 0 mm 1 mps 759 mmHg 42%
    08:00 -2°C° 0 mm 2 mps 759 mmHg 39%
    09:00 -1°C° 0 mm 2 mps 759 mmHg 35%
    10:00 -1°C° 0 mm 2 mps 758 mmHg 32%
    11:00 +2°C° 0 mm 2 mps 758 mmHg 29%
    12:00 +2°C° 0 mm 3 mps 758 mmHg 27%
    13:00 +3°C° 0 mm 3 mps 757 mmHg 24%
    14:00 +3°C° 0 mm 3 mps 757 mmHg 28%
    15:00 +2°C° 0 mm 3 mps 757 mmHg 33%
    16:00 +3°C° 0 mm 2 mps 757 mmHg 37%
    17:00 +2°C° 0 mm 2 mps 757 mmHg 40%
    18:00 +1°C° 0 mm 2 mps 757 mmHg 43%
    19:00 -1°C° 0 mm 3 mps 757 mmHg 47%
    20:00 -1°C° 0 mm 3 mps 757 mmHg 48%
    21:00 -1°C° 0 mm 3 mps 757 mmHg 49%
    22:00 -1°C° 0 mm 3 mps 757 mmHg 50%
    23:00 -1°C° 0 mm 3 mps 757 mmHg 51%

    25 February, Monday

    Time Temperature Precipitation Wind Pressure Humidity
    00:00 -1°C° 0 mm 3 mps 757 mmHg 52%
    01:00 -1°C° 0 mm 3 mps 757 mmHg 54%
    02:00 -1°C° 0 mm 3 mps 757 mmHg 55%
    03:00 -1°C° 0 mm 3 mps 757 mmHg 57%
    04:00 -1°C° 0 mm 3 mps 756 mmHg 59%
    05:00 -1°C° 0 mm 3 mps 757 mmHg 61%
    06:00 -2°C° 0 mm 4 mps 757 mmHg 64%
    07:00 -2°C° 0 mm 4 mps 757 mmHg 66%
    08:00 -1°C° 0 mm 4 mps 757 mmHg 65%
    09:00 0°C° 0 mm 4 mps 757 mmHg 64%
    10:00 +3°C° 0 mm 4 mps 757 mmHg 63%
    11:00 +4°C° 0 mm 4 mps 757 mmHg 64%
    12:00 +5°C° 0 mm 4 mps 757 mmHg 65%
    13:00 +6°C° 0 mm 4 mps 757 mmHg 66%
    14:00 +5°C° 0 mm 4 mps 756 mmHg 69%
    15:00 +5°C° 0 mm 3 mps 756 mmHg 71%
    16:00 +5°C° 0 mm 3 mps 756 mmHg 74%
    17:00 +4°C° 0 mm 3 mps 756 mmHg 79%
    18:00 +3°C° 0 mm 3 mps 756 mmHg 85%
    19:00 +1°C° 0 mm 3 mps 756 mmHg 90%
    20:00 +1°C° 0 mm 3 mps 756 mmHg 90%
    21:00 +1°C° 0 mm 3 mps 756 mmHg 91%
    22:00 0°C° 0 mm 3 mps 756 mmHg 92%
    23:00 0°C° 0 mm 3 mps 756 mmHg 92%

    26 February, Tuesday

    Time Temperature Precipitation Wind Pressure Humidity
    00:00 -1°C° 0 mm 4 mps 755 mmHg 92%
    01:00 -1°C° 0 mm 4 mps 755 mmHg 92%
    02:00 -1°C° 0 mm 4 mps 754 mmHg 92%
    03:00 -1°C° 0 mm 5 mps 754 mmHg 92%
    04:00 -1°C° 0 mm 5 mps 754 mmHg 92%
    05:00 -1°C° 0 mm 5 mps 753 mmHg 92%
    06:00 -1°C° 0 mm 5 mps 753 mmHg 92%
    07:00 -1°C° 0 mm 5 mps 753 mmHg 91%
    08:00 +1°C° 0 mm 5 mps 752 mmHg 83%
    09:00 +2°C° 0 mm 6 mps 752 mmHg 74%
    10:00 +4°C° 0 mm 6 mps 752 mmHg 66%
    11:00 +5°C° 0 mm 7 mps 752 mmHg 60%
    12:00 +6°C° 0 mm 7 mps 751 mmHg 55%
    13:00 +8°C° 0 mm 7 mps 751 mmHg 50%
    14:00 +8°C° 0 mm 7 mps 751 mmHg 51%
    15:00 +7°C° 0 mm 6 mps 750 mmHg 53%
    16:00 +7°C° 0 mm 6 mps 750 mmHg 55%
    17:00 +7°C° 0 mm 5 mps 750 mmHg 59%
    18:00 +6°C° 0 mm 5 mps 751 mmHg 63%
    19:00 +5°C° 0 mm 4 mps 751 mmHg 67%
    20:00 +5°C° 0 mm 4 mps 751 mmHg 72%
    21:00 +4°C° 0 mm 4 mps 751 mmHg 77%
    22:00 +3°C° 0 mm 3 mps 752 mmHg 83%
    23:00 +2°C° 0 mm 3 mps 752 mmHg 86%

    27 February, Wednesday

    Time Temperature Precipitation Wind Pressure Humidity
    00:00 +2°C° 0 mm 3 mps 752 mmHg 89%
    01:00 +1°C° 0 mm 3 mps 752 mmHg 92%
    02:00 +1°C° 0 mm 3 mps 752 mmHg 92%
    03:00 0°C° 0 mm 3 mps 752 mmHg 92%
    04:00 0°C° 0 mm 3 mps 752 mmHg 93%
    05:00 0°C° 0 mm 3 mps 752 mmHg 92%
    06:00 0°C° 0 mm 3 mps 752 mmHg 92%
    07:00 0°C° 0 mm 3 mps 752 mmHg 91%
    08:00 +1°C° 0 mm 3 mps 752 mmHg 84%
    09:00 +3°C° 0 mm 3 mps 751 mmHg 76%
    10:00 +5°C° 0 mm 4 mps 751 mmHg 69%
    11:00 +6°C° 0 mm 4 mps 751 mmHg 64%
    12:00 +7°C° 0 mm 4 mps 750 mmHg 60%
    13:00 +10°C° 0 mm 4 mps 750 mmHg 56%
    14:00 +10°C° 0 mm 4 mps 749 mmHg 58%
    15:00 +10°C° 0 mm 4 mps 748 mmHg 60%
    16:00 +9°C° 0 mm 5 mps 747 mmHg 62%
    17:00 +8°C° 0 mm 4 mps 747 mmHg 65%
    18:00 +7°C° 0 mm 4 mps 747 mmHg 68%
    19:00 +6°C° 0 mm 4 mps 746 mmHg 71%
    20:00 +5°C° 0 mm 4 mps 746 mmHg 71%
    21:00 +5°C° 0 mm 5 mps 746 mmHg 70%
    22:00 +5°C° 0 mm 5 mps 745 mmHg 70%
    23:00 +5°C° 0 mm 5 mps 745 mmHg 70%
    Show more